Location: Audinghen
(50.8518°N, 1.6129°E)
Time: 09:15:18
(UTC+00:00)

Cosmos 1766 - Pass Details

Date: 07 August 2020
Orbit: 522 x 543 km, 82.5° (Epoch: 20 September)

Event Time Altitude Azimuth Distance (km) Brightness Sun altitude
Exits shadow 02:26:41 30° 218° (SW) 960 4.0 -15.5°
Maximum altitude 02:28:21 57° 283° (WNW) 632 3.4 -15.3°
Drops below altitude 10° 02:32:13 10° 3° (N) 1,783 6.8 -15.0°
Sets 02:34:23 0° 8° (N) 2,675 7.9 -14.8°
